sat.trackr.live / text

‹ back to catalog

ONEWEB-0387

NORAD 49313 · 2021-090AL

PAYLOAD ACTIVE UNKNOWN

§ Identity

Operator
Country
UK
Launch date
2021-10-14
Launch site
VOSTO
Launch vehicle
Mass (kg)
RCS (m²)

Purposes: comms

External: N2YO · Heavens-Above · Gunter

§ Orbital elements

Epoch: 2026-05-25T02:38:57.550848Z

Period
109.03 min
Inclination
87.9166°
Eccentricity
0.0002234
Mean motion
13.20771896 rev/d
Perigee alt
1,180.1 km
Apogee alt
1,183.5 km
Semi-major
7,559.9 km
B*
-6.2713e-5
RAAN
279.0561°
Arg perigee
104.7175°
Mean anomaly
255.4206°
Rev number
22,677

§ Raw data

ONEWEB-03871 49313U 21090AL  26145.11038832 -.00000013  00000+0 -62713-4 0  99942 49313  87.9166 279.0561 0002234 104.7175 255.4206 13.20771896226777

JSON: /api/v1/satellites/49313 · /tle

For live sub-satellite position, see the globe view (requires WebGL).

§ Visibility from observer

Set your observer location to see the next 7 days of passes ≥ 10°. The values pass through the URL so the page stays shareable.

No JS? Fill the form by hand. The geolocation button needs JavaScript.